Wind_Speed
30 30 29 29 29 29 29 30 31 33 33 34 35 36 37 37 38 37 37 37 37 37 36 35 34 33 31 30 29 29 29 30 30 30 29 28 27 25 24 23 23 22 21
26 26 26 26 26 26 27 27 28 29 29 30 31 33 34 35 35 36 37 37 37 37 37 37 36 35 33 31 30 29 29 30 31 31 31 30 29 28 27 26 26 25 24
23 23 23 22 23 23 23 23 24 24 25 26 27 28 29 31 32 33 34 35 36 36 36 36 36 35 35 35 33 31 30 30 30 30 30 31 31 31 30 29 28 27 26
21 20 20 19 19 19 19 19 20 20 21 22 23 25 26 28 29 30 31 32 32 33 34 34 35 36 36 35 34 33 31 32 33 32 30 31 32 33 33 31 30 29 28
20 19 17 17 17 16 16 16 17 17 18 19 19 20 21 23 25 26 28 29 30 31 31 32 34 36 36 36 35 35 33 33 33 33 32 32 32 32 33 33 33 32 31
20 18 17 16 16 16 15 15 16 16 16 15 16 16 17 18 20 22 24 26 28 29 30 31 33 35 36 36 36 37 35 35 34 34 33 33 33 33 32 33 34 34 34
19 18 18 17 17 17 17 16 16 15 14 14 14 13 13 14 14 16 18 21 24 26 28 30 31 33 35 35 35 37 37 37 36 35 34 34 34 34 34 34 34 34 34
18 18 18 18 18 17 17 17 16 16 14 13 13 12 11 10 10 11 13 15 18 21 24 26 29 31 34 35 36 37 36 37 37 36 36 36 36 35 35 35 34 33 33
18 18 19 19 18 18 18 17 17 17 15 14 13 12 10 10 8 7 8 10 12 15 19 23 25 28 31 34 36 36 36 35 35 36 37 36 35 35 35 35 35 34 33
19 19 20 20 19 18 18 17 17 17 16 15 14 12 12 10 8 7 7 7 9 11 13 16 20 23 26 30 32 33 34 33 32 33 34 34 34 34 34 35 35 35 35
21 21 20 21 21 21 20 19 18 19 18 18 17 14 13 12 10 9 7 7 7 8 10 13 16 18 22 24 27 30 32 33 33 33 34 34 33 33 34 34 35 35 36
21 21 21 21 21 22 22 21 20 19 19 19 18 16 15 14 13 11 10 9 7 7 8 9 12 15 18 20 23 26 29 30 32 32 32 33 33 34 35 35 35 35 35
21 21 22 22 22 22 22 22 21 21 20 20 19 18 16 16 15 14 13 11 9 7 7 8 9 11 14 17 19 22 25 26 27 29 30 31 31 32 33 34 35 34 33
20 21 21 22 22 22 23 23 22 22 22 21 20 19 18 17 16 15 14 13 11 9 8 7 6 8 10 12 15 17 20 22 23 25 26 27 29 29 30 31 31 31 32
20 21 22 22 22 22 22 23 23 23 23 23 22 21 20 18 17 17 16 15 13 11 9 7 6 6 7 9 12 14 16 18 20 22 23 24 25 26 27 28 28 28 28
19 20 21 22 22 22 23 23 23 23 23 23 23 23 22 21 20 19 18 17 15 14 12 9 7 5 5 6 9 11 13 14 16 18 20 22 23 24 25 25 25 24 24
18 19 20 21 22 22 23 23 23 23 23 23 23 23 23 22 21 21 20 18 17 16 14 11 8 6 5 5 6 9 10 12 14 16 17 18 19 21 22 22 21 20 21
17 18 19 20 21 21 22 23 23 23 23 24 24 24 23 23 22 22 21 21 19 18 16 14 11 9 7 5 4 5 7 9 11 13 14 15 16 17 17 18 19 19 19
17 17 18 19 19 20 21 22 23 23 23 24 24 25 24 24 23 23 22 22 21 20 18 16 14 12 9 7 4 3 3 5 8 10 11 12 13 14 14 15 16 16 17
16 16 17 18 18 19 19 20 21 22 23 24 24 25 25 24 24 23 23 22 22 22 20 18 17 15 13 10 7 5 2 2 4 6 8 10 11 11 11 12 13 14 14
15 15 16 16 17 18 18 19 19 20 21 22 24 25 25 24 24 24 24 23 23 23 22 20 19 18 16 14 12 10 8 7 5 5 6 7 9 10 10 10 10 11 12
14 14 14 15 15 16 16 17 18 18 19 20 22 23 23 24 24 24 24 24 24 23 23 22 21 20 19 17 16 14 13 11 9 8 7 7 7 8 10 10 10 10 10
13 13 14 14 14 15 15 15 16 16 17 18 19 20 21 22 23 24 24 24 24 24 23 23 22 21 20 19 17 17 16 15 13 11 10 9 9 9 10 10 9 10 10
13 13 13 13 14 14 14 14 14 14 15 16 17 17 18 19 21 22 23 23 23 23 23 23 22 22 21 20 19 18 17 17 16 14 12 11 11 10 10 9 9 9 9
13 14 14 13 13 13 13 13 13 13 13 14 14 15 15 16 17 19 20 21 21 21 21 22 22 21 20 20 19 18 17 16 16 15 14 13 12 11 11 10 10 10 10
14 14 14 14 14 13 13 13 13 12 12 12 12 13 13 14 14 15 16 17 19 19 19 19 20 20 20 19 18 17 16 16 15 14 13 13 12 12 11 11 10 10 9
Wind_Direction
302 299 295 291 288 285 283 282 280 278 276 274 272 270 268 266 263 260 256 254 253 253 253 252 252 252 254 253 250 248 246 245 246 246 243 241 239 239 241 242 243 243 242
307 305 301 297 294 291 289 288 285 282 279 277 274 271 269 267 263 259 255 253 252 250 250 250 249 248 248 248 249 247 245 245 246 245 243 241 238 239 240 241 241 242 244
316 312 310 306 304 301 297 294 291 287 284 281 278 274 271 268 264 260 256 253 251 249 248 247 245 244 244 243 245 245 244 243 242 242 242 240 238 238 239 239 239 241 243
330 325 321 318 315 311 306 302 298 295 292 288 282 278 274 270 266 261 256 253 250 247 245 244 243 241 240 240 241 242 241 240 240 240 241 239 238 238 238 237 238 239 242
343 341 337 334 331 327 322 316 311 306 303 297 293 286 279 273 268 262 257 253 249 246 244 242 241 240 239 238 237 238 238 237 237 237 239 239 239 238 239 238 238 240 240
356 355 352 350 348 345 342 336 329 321 316 309 304 299 289 279 271 264 258 253 250 246 242 241 240 239 238 236 234 235 236 235 234 235 236 237 238 238 239 238 239 239 239
1 1 1 0 358 355 351 347 342 338 331 324 320 312 304 293 280 268 260 255 251 247 243 241 240 237 235 233 232 232 234 235 234 234 234 235 236 237 237 237 238 239 240
6 7 7 6 5 4 3 0 355 351 347 342 338 330 325 316 297 280 267 260 253 247 244 242 241 238 234 231 231 231 233 233 232 231 232 233 235 236 236 235 236 238 239
12 10 8 8 8 8 8 7 6 4 3 1 359 353 343 336 324 303 281 270 261 253 249 244 241 238 234 230 230 230 231 232 231 231 232 232 234 235 235 234 235 238 239
19 16 14 14 13 12 12 12 13 15 16 13 9 4 1 354 345 331 312 287 272 260 251 242 239 235 232 229 228 228 232 234 233 232 232 232 232 234 234 233 235 238 239
24 23 24 24 24 23 23 23 22 22 23 22 20 20 17 14 10 2 347 331 296 269 256 248 244 239 235 232 230 230 231 234 235 235 233 232 232 233 235 237 238 240 240
27 27 27 27 28 27 27 27 27 26 26 25 26 28 27 23 20 12 2 348 329 300 279 267 257 246 242 237 234 235 234 234 234 236 235 233 233 235 237 239 239 241 242
28 29 30 29 29 29 29 29 30 29 29 30 29 28 26 24 22 18 13 7 354 339 315 289 271 258 250 242 238 237 236 237 236 236 237 237 238 239 238 239 240 241 243
29 30 30 29 29 30 30 30 30 29 29 29 28 27 25 22 19 17 15 12 6 357 343 324 294 270 256 249 244 242 242 240 239 239 239 239 239 240 239 238 238 240 242
29 30 30 30 29 29 29 30 31 31 31 31 30 29 27 25 23 21 18 16 14 9 359 347 322 296 272 257 250 246 244 241 240 239 240 240 240 241 240 239 239 240 240
28 28 29 29 28 28 29 30 31 32 32 31 31 30 29 28 26 24 21 19 17 13 6 358 343 320 299 276 258 249 246 243 240 238 238 238 239 240 241 240 241 240 240
27 28 28 28 28 28 30 31 31 30 30 30 29 28 28 27 26 24 23 21 19 17 13 10 5 355 337 306 276 258 248 243 239 236 236 236 234 235 235 237 239 239 238
26 27 27 28 28 29 30 31 31 29 29 28 28 28 27 27 26 26 26 26 25 23 22 20 17 9 360 340 308 274 252 240 233 230 232 231 231 232 234 237 236 235 235
24 26 28 28 28 28 29 29 30 30 30 29 28 28 28 28 29 29 30 30 29 28 28 28 27 25 21 16 3 333 260 233 225 222 221 224 227 226 228 229 228 225 226
22 24 26 26 26 26 26 27 28 28 29 29 29 29 30 31 32 32 33 33 32 33 33 34 35 33 32 34 36 37 54 158 189 197 203 207 210 210 213 217 216 216 218
18 20 22 23 23 23 23 24 24 25 26 27 28 29 31 32 33 34 35 34 35 36 37 39 39 39 41 46 48 53 64 80 109 136 167 183 185 191 195 200 202 203 205
9 12 14 16 17 18 19 20 21 22 24 26 27 29 31 32 34 34 36 37 38 39 41 42 42 44 46 50 54 60 66 74 85 102 119 142 160 165 172 179 183 187 189
358 1 4 6 8 11 12 14 16 18 20 23 25 28 30 32 34 35 37 38 40 42 43 44 46 48 49 51 57 62 66 72 76 86 100 112 124 137 144 148 156 163 174
346 349 352 355 358 1 3 6 8 10 14 18 22 25 27 29 32 34 36 38 40 42 44 45 47 49 51 54 57 61 66 70 74 80 88 99 106 116 126 133 138 145 153
331 335 338 341 345 348 352 355 358 1 4 9 14 18 21 24 27 31 34 36 39 41 44 46 48 50 52 55 57 59 62 66 71 77 84 93 100 108 117 123 128 134 138
316 319 323 326 329 333 337 341 345 348 352 356 0 5 10 15 19 23 28 33 37 39 42 45 47 49 51 54 55 58 62 66 71 77 82 87 93 100 108 116 121 123 125
Height
5844 5841 5837 5835 5832 5830 5828 5826 5824 5823 5821 5820 5819 5819 5819 5820 5822 5824 5827 5830 5833 5836 5839 5842 5845 5847 5849 5851 5853 5855 5858 5860 5863 5865 5868 5871 5873 5876 5878 5880 5881 5883 5885
5838 5834 5830 5827 5825 5823 5820 5818 5816 5814 5813 5811 5810 5809 5809 5809 5810 5812 5815 5818 5822 5825 5829 5832 5835 5838 5841 5843 5845 5848 5851 5853 5855 5858 5860 5863 5867 5869 5872 5874 5876 5878 5880
5833 5829 5825 5822 5819 5816 5814 5811 5809 5807 5805 5803 5802 5800 5800 5800 5800 5802 5804 5807 5810 5814 5818 5821 5824 5828 5831 5834 5837 5840 5842 5845 5848 5851 5853 5856 5859 5862 5865 5868 5870 5872 5874
5829 5825 5821 5818 5814 5811 5809 5806 5803 5801 5798 5796 5794 5793 5792 5791 5792 5792 5794 5796 5800 5803 5807 5810 5814 5817 5821 5825 5828 5831 5834 5837 5840 5843 5846 5849 5852 5855 5858 5861 5864 5866 5868
5826 5822 5818 5815 5811 5808 5805 5802 5799 5796 5793 5790 5788 5786 5785 5784 5784 5784 5785 5787 5790 5793 5796 5800 5803 5807 5811 5815 5818 5822 5825 5828 5831 5834 5837 5841 5844 5847 5850 5853 5856 5859 5861
5825 5821 5817 5813 5810 5806 5802 5798 5795 5792 5789 5786 5783 5781 5780 5778 5777 5777 5778 5779 5781 5784 5787 5790 5793 5797 5801 5805 5809 5813 5816 5819 5823 5826 5829 5832 5836 5839 5842 5845 5848 5851 5854
5825 5821 5817 5813 5809 5805 5801 5797 5793 5789 5786 5783 5780 5778 5775 5773 5772 5771 5771 5772 5774 5776 5778 5781 5784 5787 5791 5795 5799 5802 5806 5810 5814 5817 5820 5824 5828 5831 5834 5837 5840 5843 5846
5826 5822 5818 5813 5809 5804 5800 5796 5792 5788 5784 5781 5777 5775 5772 5770 5768 5767 5767 5767 5768 5769 5770 5772 5774 5777 5781 5785 5789 5792 5796 5801 5805 5808 5812 5815 5819 5822 5826 5829 5832 5835 5838
5827 5823 5818 5814 5809 5805 5801 5797 5792 5788 5783 5780 5776 5773 5771 5768 5766 5765 5764 5763 5763 5763 5764 5765 5767 5769 5772 5775 5779 5783 5788 5792 5795 5799 5803 5806 5810 5813 5817 5820 5824 5827 5830
5828 5824 5820 5815 5810 5806 5801 5797 5793 5789 5785 5781 5777 5774 5771 5768 5765 5763 5762 5760 5760 5759 5759 5759 5760 5762 5765 5768 5772 5776 5779 5783 5787 5790 5794 5798 5801 5805 5808 5812 5815 5818 5822
5830 5826 5821 5817 5812 5807 5803 5798 5794 5790 5786 5782 5778 5775 5771 5768 5766 5763 5761 5759 5758 5757 5756 5756 5756 5758 5760 5762 5765 5768 5772 5775 5778 5781 5785 5789 5793 5796 5800 5803 5807 5810 5813
5833 5828 5824 5819 5814 5810 5805 5801 5796 5792 5788 5784 5780 5776 5773 5770 5766 5763 5761 5759 5757 5755 5754 5753 5753 5754 5755 5757 5760 5762 5765 5768 5771 5774 5777 5781 5785 5789 5792 5795 5798 5801 5804
5835 5831 5826 5822 5817 5813 5808 5804 5799 5795 5790 5786 5782 5778 5774 5771 5767 5764 5761 5758 5756 5754 5752 5751 5751 5751 5752 5753 5755 5757 5759 5762 5765 5768 5771 5774 5777 5781 5784 5787 5790 5793 5796
5838 5833 5829 5824 5820 5816 5811 5806 5802 5797 5793 5789 5784 5780 5776 5772 5769 5765 5762 5759 5756 5753 5751 5749 5748 5748 5749 5750 5751 5752 5754 5756 5759 5761 5764 5767 5770 5773 5776 5779 5782 5785 5787
5840 5836 5832 5827 5823 5819 5814 5810 5805 5800 5796 5791 5787 5783 5779 5774 5770 5767 5763 5759 5756 5753 5750 5748 5747 5746 5746 5746 5747 5748 5750 5751 5753 5756 5758 5761 5763 5766 5769 5772 5775 5778 5780
5842 5838 5834 5830 5826 5822 5817 5813 5808 5804 5799 5795 5790 5786 5781 5777 5772 5768 5764 5760 5756 5753 5750 5747 5745 5744 5744 5743 5744 5744 5745 5747 5748 5750 5753 5755 5758 5761 5763 5766 5768 5771 5774
5845 5841 5837 5833 5829 5825 5820 5816 5811 5807 5802 5798 5793 5789 5784 5779 5775 5771 5766 5761 5757 5753 5750 5747 5744 5743 5742 5741 5741 5741 5742 5742 5744 5745 5748 5750 5752 5755 5757 5760 5763 5765 5768
5847 5843 5839 5835 5832 5828 5823 5819 5815 5810 5806 5801 5796 5792 5787 5782 5777 5773 5768 5764 5759 5755 5751 5748 5745 5743 5741 5740 5739 5738 5738 5739 5740 5742 5743 5746 5748 5750 5753 5755 5758 5761 5763
5849 5845 5841 5838 5834 5830 5826 5822 5818 5814 5809 5804 5800 5795 5790 5785 5781 5776 5771 5766 5762 5758 5753 5750 5746 5744 5741 5739 5737 5736 5736 5736 5737 5738 5740 5742 5744 5747 5749 5751 5754 5756 5759
5850 5847 5843 5840 5836 5833 5829 5825 5821 5817 5812 5808 5803 5798 5794 5789 5784 5779 5775 5770 5766 5761 5757 5753 5749 5746 5743 5740 5738 5736 5735 5735 5735 5737 5738 5740 5742 5744 5746 5748 5751 5753 5756
5852 5848 5845 5842 5838 5835 5831 5827 5824 5820 5816 5811 5807 5802 5797 5793 5788 5783 5779 5774 5769 5765 5760 5756 5752 5749 5745 5742 5740 5738 5737 5736 5736 5736 5737 5738 5740 5742 5744 5747 5749 5751 5754
5852 5849 5846 5843 5840 5836 5833 5830 5826 5822 5818 5814 5810 5806 5801 5797 5792 5788 5783 5778 5774 5770 5765 5761 5757 5753 5750 5746 5744 5741 5740 5739 5738 5738 5738 5739 5740 5742 5744 5746 5748 5750 5753
5853 5850 5847 5844 5841 5838 5834 5831 5828 5824 5821 5817 5813 5809 5805 5801 5796 5792 5787 5783 5779 5774 5770 5766 5762 5758 5755 5751 5749 5746 5744 5743 5742 5741 5741 5742 5743 5744 5746 5747 5749 5751 5752
5853 5850 5847 5844 5841 5838 5835 5832 5829 5826 5823 5819 5816 5812 5808 5805 5800 5796 5792 5788 5783 5779 5775 5771 5767 5764 5760 5757 5754 5752 5750 5748 5746 5746 5745 5745 5746 5747 5748 5749 5751 5752 5753
5852 5849 5847 5844 5841 5839 5836 5833 5830 5827 5824 5821 5818 5814 5811 5808 5804 5800 5796 5792 5788 5784 5780 5777 5773 5769 5766 5763 5760 5758 5755 5754 5752 5751 5750 5750 5750 5750 5751 5752 5753 5754 5755
5850 5848 5845 5843 5840 5838 5835 5833 5830 5827 5824 5822 5819 5816 5813 5810 5806 5803 5799 5796 5792 5789 5785 5782 5778 5775 5772 5768 5766 5763 5761 5759 5757 5756 5755 5754 5754 5754 5754 5755 5756 5756 5757